User: anonymous   Login
Location: Unspecified
(0.0000°N, 0.0000°E)
Time: 09:55:18
(UTC+02:00)
Language:

Transit 2A - Orbit

View from above orbital plane
View from above orbital plane
View from above satellite
View from above satellite

Ground track
Ground track

The orbit data is extracted from the following two-line orbital elements,

1 00045U 60007A   15147.19871400  .00000057  00000-0  41020-4 0  9993
2 00045 066.6943 210.6125 0261467 222.0250 136.0533 14.33350560857787
Epoch (UTC): 27 May 2015 04:46:08
Eccentricity: 0.0261467
inclination: 66.6943°
perigee height: 593 km
apogee height: 968 km
right ascension of ascending node: 210.6125°
argument of perigee: 222.0250°
revolutions per day: 14.33350560
mean anomaly at epoch: 136.0533°
orbit number at epoch: 85778

The dashed part of the orbit path shows where the satellite is in the earth's shadow,  

DLR